SM6LNJ-13 Weather Reports


time (UTC)temp
F
wind
direction
speed
knots
gust
knots
rain 1hr
in
rain 24hr
in
rain mn
in
humidity
%
barometer
mb
20260505231350 37 102 0.0 0.9 0.00 0.00 0.00 80 1429.0
20260505231150 37 96 0.0 1.7 0.00 0.00 0.00 80 1429.0
20260505230950 37 95 0.0 1.7 0.00 0.00 0.00 80 1429.1
20260505230750 37 94 0.0 1.7 0.00 0.00 0.00 80 1425.8
20260505230550 37 94 0.9 1.7 0.00 0.00 0.00 80 1426.0
20260505230350 37 102 0.0 1.7 0.00 0.00 0.00 80 1422.7
20260505230150 37 96 0.0 1.7 0.00 0.00 0.00 80 1422.8
20260505225950 37 100 0.0 1.7 0.00 0.00 0.00 80 1422.9
20260505225750 37 91 0.9 1.7 0.00 0.00 0.00 80 1422.8
20260505225550 37 94 0.9 0.9 0.00 0.00 0.00 79 1422.6
20260505225350 37 94 0.9 0.9 0.00 0.00 0.00 79 1426.0
20260505225150 37 99 0.0 1.7 0.00 0.00 0.00 79 1425.9
20260505224950 37 99 0.0 1.7 0.00 0.00 0.00 79 1425.9
20260505224750 37 96 0.0 1.7 0.00 0.00 0.00 79 1426.0
20260505224550 37 101 0.9 1.7 0.00 0.00 0.00 79 1422.7
20260505224350 37 110 0.9 1.7 0.00 0.00 0.00 78 1422.9
20260505224150 37 111 0.0 1.7 0.00 0.00 0.00 78 1419.7
20260505223950 37 88 0.0 1.7 0.00 0.00 0.00 78 1419.8
20260505223750 37 103 0.0 1.7 0.00 0.00 0.00 78 1419.9
20260505223550 37 94 0.9 1.7 0.00 0.00 0.00 78 1419.8
20260505223350 37 97 0.9 1.7 0.00 0.00 0.00 78 1419.7
20260505223150 37 96 0.0 1.7 0.00 0.00 0.00 78 1419.6
20260505222950 37 98 0.0 1.7 0.00 0.00 0.00 77 1419.6
20260505222750 37 96 0.9 1.7 0.00 0.00 0.00 77 1419.8
20260505222550 37 100 0.9 1.7 0.00 0.00 0.00 77 1419.8
20260505222350 37 100 0.9 1.7 0.00 0.00 0.00 77 1416.4
20260505222150 38 102 0.0 0.9 0.00 0.00 0.00 77 1416.5
20260505221950 38 94 0.9 0.9 0.00 0.00 0.00 76 1416.6
20260505221750 38 90 0.9 0.9 0.00 0.00 0.00 76 1416.5
20260505221550 38 100 0.0 0.9 0.00 0.00 0.00 76 1416.6
20260505221350 38 94 0.0 0.9 0.00 0.00 0.00 76 1416.8
20260505221150 38 94 0.9 1.7 0.00 0.00 0.00 76 1413.7
20260505220950 38 106 0.0 2.6 0.00 0.00 0.00 76 1414.0
20260505220750 38 107 0.0 2.6 0.00 0.00 0.00 76 1414.2
20260505220550 38 101 0.0 2.6 0.00 0.00 0.00 76 1411.0
20260505220350 38 87 0.9 2.6 0.00 0.00 0.00 76 1414.3
20260505220150 38 90 0.9 2.6 0.00 0.00 0.00 76 1413.9
20260505215950 38 93 0.9 1.7 0.00 0.00 0.00 75 1413.8
20260505215750 38 97 0.0 0.9 0.00 0.00 0.00 75 1413.9
20260505215550 38 100 0.0 0.9 0.00 0.00 0.00 75 1414.0
20260505215350 38 103 0.0 0.9 0.00 0.00 0.00 75 1413.9
20260505215150 38 91 0.9 0.9 0.00 0.00 0.00 75 1414.0
20260505214950 38 91 0.9 0.9 0.00 0.00 0.00 75 1413.9
20260505214750 38 91 0.0 0.9 0.00 0.00 0.00 75 1413.8
20260505214550 38 97 0.0 0.9 0.00 0.00 0.00 74 1414.0
20260505214350 38 97 0.0 0.9 0.00 0.00 0.00 74 1414.3
20260505214150 39 92 0.0 0.9 0.00 0.00 0.00 74 1411.1
20260505213950 39 103 0.0 0.9 0.00 0.00 0.00 74 1411.4
20260505213750 39 93 0.0 0.9 0.00 0.00 0.00 74 1411.6
20260505213550 39 90 0.9 0.9 0.00 0.00 0.00 74 1411.7
20260505213350 39 85 0.0 1.7 0.00 0.00 0.00 74 1411.7
20260505213150 39 91 0.9 1.7 0.00 0.00 0.00 74 1411.6
20260505212950 39 90 0.9 1.7 0.00 0.00 0.00 74 1411.6
20260505212750 39 86 0.9 1.7 0.00 0.00 0.00 74 1411.6
20260505212550 39 85 0.0 1.7 0.00 0.00 0.00 74 1411.5
20260505212350 39 88 0.9 1.7 0.00 0.00 0.00 74 1411.4
20260505212150 39 92 0.9 1.7 0.00 0.00 0.00 73 1411.3
20260505211950 39 89 0.9 1.7 0.00 0.00 0.00 73 1411.3
20260505211750 39 89 0.9 1.7 0.00 0.00 0.00 73 1411.2
20260505211550 39 87 0.9 1.7 0.00 0.00 0.00 73 1411.1
20260505211350 39 92 0.9 1.7 0.00 0.00 0.00 73 1411.1
20260505211150 39 95 0.9 1.7 0.00 0.00 0.00 73 1411.4
20260505210950 39 96 0.9 1.7 0.00 0.00 0.00 72 1411.7
20260505210750 39 91 0.9 1.7 0.00 0.00 0.00 72 1412.1
20260505210550 39 86 0.0 1.7 0.00 0.00 0.00 72 1412.1
20260505210350 39 93 0.0 0.9 0.00 0.00 0.00 72 1412.2
20260505210150 39 96 0.0 0.9 0.00 0.00 0.00 72 1412.3
20260505205950 39 96 0.0 0.9 0.00 0.00 0.00 72 1412.3
20260505205750 40 99 0.0 0.9 0.00 0.00 0.00 71 1412.4
20260505205551 40 103 0.0 0.9 0.00 0.00 0.00 71 1412.5
20260505205350 40 93 0.0 0.9 0.00 0.00 0.00 71 1412.8
20260505205150 40 115 0.0 0.9 0.00 0.00 0.00 71 1413.0
20260505204950 40 176 0.0 0.9 0.00 0.00 0.00 71 1413.1
20260505204750 40 97 0.0 0.9 0.00 0.00 0.00 71 1413.1
20260505204550 40 84 0.0 0.9 0.00 0.00 0.00 71 1413.1
20260505204350 40 86 0.0 0.9 0.00 0.00 0.00 71 1413.2
20260505204150 40 112 0.0 1.7 0.00 0.00 0.00 71 1413.3
20260505203950 40 89 0.0 1.7 0.00 0.00 0.00 70 1413.1
20260505203750 40 102 0.0 1.7 0.00 0.00 0.00 70 1412.8
20260505203550 40 118 0.0 1.7 0.00 0.00 0.00 70 1412.6
20260505203350 40 82 0.0 0.9 0.00 0.00 0.00 70 1412.5
20260505203151 40 88 0.0 0.9 0.00 0.00 0.00 70 1412.5
20260505202950 40 87 0.9 0.9 0.00 0.00 0.00 69 1412.5
20260505202750 40 73 0.0 0.9 0.00 0.00 0.00 69 1412.6
20260505202550 40 88 0.0 0.9 0.00 0.00 0.00 69 1412.8
20260505202350 40 91 0.0 0.9 0.00 0.00 0.00 69 1413.0
20260505202150 40 90 0.0 0.9 0.00 0.00 0.00 68 1413.2
20260505201950 40 90 0.0 0.9 0.00 0.00 0.00 68 1413.5
20260505201750 41 94 0.0 0.0 0.00 0.00 0.00 68 1413.7
20260505201550 41 102 0.0 0.0 0.00 0.00 0.00 68 1413.9
20260505201350 41 114 0.0 0.0 0.00 0.00 0.00 67 1413.9
20260505201150 41 110 0.0 0.0 0.00 0.00 0.00 67 1413.9
20260505200750 41 94 0.0 0.0 0.00 0.00 0.00 66 1414.1
20260505200550 41 102 0.0 0.9 0.00 0.00 0.00 66 1410.8
20260505200350 41 93 0.0 0.9 0.00 0.00 0.00 65 1410.9
20260505200151 41 98 0.0 0.9 0.00 0.00 0.00 65 1411.0
20260505195950 41 93 0.0 0.9 0.00 0.00 0.00 64 1411.3
20260505195750 42 94 0.0 0.9 0.00 0.00 0.00 64 1411.7
20260505195550 42 46 0.0 0.9 0.00 0.00 0.00 63 1412.4
20260505195350 43 89 0.0 1.7 0.00 0.00 0.00 63 1413.0
20260505195150 43 92 0.0 1.7 0.00 0.00 0.00 63 1413.5
20260505194950 43 103 0.0 1.7 0.00 0.00 0.00 63 1413.8
20260505194750 43 148 0.0 1.7 0.00 0.00 0.00 63 1413.9
20260505194550 43 173 0.0 1.7 0.00 0.00 0.00 64 1413.7
20260505194350 43 151 0.0 0.9 0.00 0.00 0.00 63 1413.6
20260505194150 43 147 0.0 0.9 0.00 0.00 0.00 63 1413.7
20260505194145 43 131 0.0 0.0 0.00 0.00 0.00 63 1413.8
20260505193750 43 133 0.0 0.0 0.00 0.00 0.00 63 1414.1
20260505193550 44 138 0.0 0.9 0.00 0.00 0.00 62 1414.4
20260505193350 44 154 0.0 1.7 0.00 0.00 0.00 62 1414.6
20260505193151 44 146 0.0 1.7 0.00 0.00 0.00 61 1414.8
20260505192950 44 146 0.0 1.7 0.00 0.00 0.00 61 1415.1
20260505192750 44 152 0.0 1.7 0.00 0.00 0.00 61 1415.1
20260505192550 44 194 0.0 1.7 0.00 0.00 0.00 61 1414.9
20260505192350 44 178 0.9 1.7 0.00 0.00 0.00 61 1414.7
20260505192150 44 185 0.0 0.9 0.00 0.00 0.00 60 1414.5
20260505191950 44 161 0.0 0.9 0.00 0.00 0.00 60 1414.2
20260505191750 43 103 0.0 0.9 0.00 0.00 0.00 59 1414.1
20260505191550 44 164 0.0 0.0 0.00 0.00 0.00 59 1414.2
20260505191350 44 178 0.0 0.0 0.00 0.00 0.00 58 1414.4
20260505191150 44 41 0.0 0.9 0.00 0.00 0.00 58 1414.9
20260505190950 44 101 0.0 0.9 0.00 0.00 0.00 58 1415.4
20260505190750 45 131 0.0 0.9 0.00 0.00 0.00 58 1415.9
20260505190550 45 186 0.0 1.7 0.00 0.00 0.00 58 1416.0
20260505190350 45 201 0.0 2.6 0.00 0.00 0.00 57 1416.3
20260505190150 45 55 0.0 2.6 0.00 0.00 0.00 57 1416.6
20260505185950 46 137 0.9 2.6 0.00 0.00 0.00 57 1413.6
20260505185750 46 163 0.0 2.6 0.00 0.00 0.00 56 1413.8
20260505185550 46 191 0.9 2.6 0.00 0.00 0.00 56 1414.0
20260505185350 46 169 0.9 1.7 0.00 0.00 0.00 56 1414.0
20260505185150 46 152 0.9 1.7 0.00 0.00 0.00 55 1414.1
20260505184950 46 155 0.9 2.6 0.00 0.00 0.00 55 1414.2
20260505184750 46 137 0.0 2.6 0.00 0.00 0.00 55 1414.3
20260505184550 46 128 0.0 2.6 0.00 0.00 0.00 54 1414.6
20260505184350 47 147 0.0 2.6 0.00 0.00 0.00 54 1414.7
20260505184150 47 126 0.9 2.6 0.00 0.00 0.00 54 1414.8
20260505183950 47 146 0.9 2.6 0.00 0.00 0.00 53 1414.9
20260505183751 47 152 0.0 2.6 0.00 0.00 0.00 53 1415.1
20260505183550 47 183 0.0 3.5 0.00 0.00 0.00 52 1415.2
20260505183350 47 202 0.0 3.5 0.00 0.00 0.00 52 1415.4
20260505183150 47 168 0.9 3.5 0.00 0.00 0.00 52 1415.6
20260505182950 47 171 0.9 3.5 0.00 0.00 0.00 51 1415.8
20260505182750 48 164 0.9 3.5 0.00 0.00 0.00 51 1416.0
20260505182550 48 179 0.9 3.5 0.00 0.00 0.00 51 1416.3
20260505182350 48 158 0.9 4.3 0.00 0.00 0.00 51 1416.6
20260505182150 49 238 0.9 4.3 0.00 0.00 0.00 51 1417.2
20260505181950 49 178 0.9 4.3 0.00 0.00 0.00 49 1418.2
20260505181750 50 165 0.9 4.3 0.00 0.00 0.00 47 1419.6
20260505181550 52 209 0.9 4.3 0.00 0.00 0.00 45 1422.0
20260505181350 54 182 0.9 2.6 0.00 0.00 0.00 44 1424.6
20260505181150 55 160 0.9 3.5 0.00 0.00 0.00 43 1425.5
20260505180950 55 187 0.9 3.5 0.00 0.00 0.00 44 1425.9
20260505180750 55 155 0.9 3.5 0.00 0.00 0.00 43 1426.1
20260505180550 55 145 0.9 4.3 0.00 0.00 0.00 44 1426.0
20260505180350 55 193 0.9 4.3 0.00 0.00 0.00 44 1425.9
20260505180151 55 191 0.9 4.3 0.00 0.00 0.00 43 1425.6
20260505175950 55 205 0.9 4.3 0.00 0.00 0.00 42 1425.5
20260505175750 55 181 1.7 5.2 0.00 0.00 0.00 42 1425.6
20260505175550 55 199 0.9 6.1 0.00 0.00 0.00 42 1425.8
20260505175350 55 206 1.7 6.1 0.00 0.00 0.00 42 1425.9
20260505175150 56 201 1.7 6.1 0.00 0.00 0.00 42 1426.6
20260505174951 56 198 1.7 6.1 0.00 0.00 0.00 41 1427.5
20260505174750 57 181 0.9 3.5 0.00 0.00 0.00 41 1428.2
20260505174550 57 179 0.9 3.5 0.00 0.00 0.00 41 1428.5
20260505174351 57 186 0.9 3.5 0.00 0.00 0.00 40 1428.4
20260505174150 57 185 0.9 3.5 0.00 0.00 0.00 40 1428.4
20260505173950 57 199 0.9 5.2 0.00 0.00 0.00 40 1428.8
20260505173750 58 191 0.9 5.2 0.00 0.00 0.00 40 1429.6
20260505173550 58 207 0.9 5.2 0.00 0.00 0.00 41 1429.8
20260505173350 58 190 0.9 5.2 0.00 0.00 0.00 41 1429.7
20260505173150 57 184 0.9 5.2 0.00 0.00 0.00 41 1429.0
20260505172950 58 200 0.9 5.2 0.00 0.00 0.00 41 1429.3
20260505172750 58 201 0.9 5.2 0.00 0.00 0.00 41 1429.7
20260505172550 58 201 0.9 4.3 0.00 0.00 0.00 42 1429.9
20260505172350 58 190 0.9 6.1 0.00 0.00 0.00 42 1429.5
20260505172150 58 187 0.9 6.1 0.00 0.00 0.00 42 1429.2
20260505171950 57 166 0.9 6.1 0.00 0.00 0.00 42 1428.9
20260505171750 57 167 0.9 6.1 0.00 0.00 0.00 42 1427.9
20260505171550 57 200 2.6 6.1 0.00 0.00 0.00 41 1427.7
20260505171350 57 174 1.7 6.1 0.00 0.00 0.00 41 1428.0
20260505171151 57 189 1.7 6.1 0.00 0.00 0.00 41 1428.1
20260505170950 57 162 0.9 5.2 0.00 0.00 0.00 42 1428.5
20260505170750 57 187 1.7 5.2 0.00 0.00 0.00 41 1427.7
20260505170550 57 198 2.6 5.2 0.00 0.00 0.00 40 1428.5
20260505170350 58 171 1.7 5.2 0.00 0.00 0.00 39 1430.2
20260505170150 59 165 0.9 4.3 0.00 0.00 0.00 39 1430.6
20260505165950 58 172 0.9 5.2 0.00 0.00 0.00 39 1430.1
20260505165750 58 184 0.9 5.2 0.00 0.00 0.00 40 1430.3
20260505165550 58 184 0.9 5.2 0.00 0.00 0.00 41 1430.1
20260505165350 58 188 0.9 5.2 0.00 0.00 0.00 40 1429.8
20260505165150 58 187 0.9 5.2 0.00 0.00 0.00 40 1429.9
20260505164950 58 179 0.9 3.5 0.00 0.00 0.00 40 1430.3
20260505164750 59 196 0.9 3.5 0.00 0.00 0.00 40 1430.7
20260505164550 59 143 0.9 3.5 0.00 0.00 0.00 39 1430.9
20260505164350 59 195 0.9 3.5 0.00 0.00 0.00 40 1431.3
20260505164150 59 186 0.9 3.5 0.00 0.00 0.00 40 1431.6
20260505163950 59 175 0.9 3.5 0.00 0.00 0.00 40 1431.5
20260505163750 59 176 0.9 3.5 0.00 0.00 0.00 40 1431.3
20260505163550 59 195 0.9 5.2 0.00 0.00 0.00 40 1430.7
20260505163350 58 181 0.9 5.2 0.00 0.00 0.00 41 1430.1
20260505163150 58 225 0.9 5.2 0.00 0.00 0.00 41 1429.8
20260505162950 58 213 0.9 5.2 0.00 0.00 0.00 41 1429.4
20260505162750 58 191 0.9 5.2 0.00 0.00 0.00 41 1429.3
20260505162550 57 179 0.9 4.3 0.00 0.00 0.00 41 1428.9
20260505162350 58 214 1.7 4.3 0.00 0.00 0.00 40 1429.1
20260505162150 58 221 1.7 4.3 0.00 0.00 0.00 41 1429.4
20260505161950 58 189 0.9 4.3 0.00 0.00 0.00 41 1429.4
20260505161750 58 196 0.9 4.3 0.00 0.00 0.00 41 1429.2
20260505161550 58 184 1.7 6.1 0.00 0.00 0.00 41 1429.2
20260505161350 57 175 0.9 8.7 0.00 0.00 0.00 42 1428.8
20260505161150 56 200 0.9 8.7 0.00 0.00 0.00 43 1427.2
20260505160950 54 199 0.9 8.7 0.00 0.00 0.00 43 1424.8
20260505160750 53 181 1.7 8.7 0.00 0.00 0.00 42 1423.7
20260505160550 54 169 1.7 8.7 0.00 0.00 0.00 42 1424.2
20260505160350 54 181 1.7 6.1 0.00 0.00 0.00 42 1425.0
20260505160150 55 181 1.7 5.2 0.00 0.00 0.00 42 1426.3
20260505153350 56 194 1.7 5.2 0.00 0.00 0.00 41 1426.6
20260505153150 55 170 0.9 4.3 0.00 0.00 0.00 42 1426.0
20260505152950 55 166 0.9 4.3 0.00 0.00 0.00 41 1425.4
20260505152750 55 179 1.7 4.3 0.00 0.00 0.00 40 1425.7
20260505152550 56 177 1.7 4.3 0.00 0.00 0.00 40 1426.6
20260505152150 57 184 0.9 4.3 0.00 0.00 0.00 41 1427.8
20260505151950 56 189 0.9 4.3 0.00 0.00 0.00 40 1427.7
20260505151750 57 195 0.9 3.5 0.00 0.00 0.00 38 1427.9
20260505151550 57 200 1.7 3.5 0.00 0.00 0.00 39 1428.2
20260505151350 57 184 0.9 5.2 0.00 0.00 0.00 39 1428.3
20260505151150 57 215 0.9 5.2 0.00 0.00 0.00 40 1428.2
20260505151145 57 172 0.9 5.2 0.00 0.00 0.00 40 1428.3
20260505150750 57 198 0.9 5.2 0.00 0.00 0.00 39 1428.0
20260505150550 57 196 1.7 5.2 0.00 0.00 0.00 39 1428.1
20260505150350 57 204 0.9 4.3 0.00 0.00 0.00 39 1427.9
20260505150150 57 163 0.9 4.3 0.00 0.00 0.00 39 1427.9
20260505140550 58 204 0.9 5.2 0.00 0.00 0.00 37 1429.9
20260505140350 59 178 1.7 5.2 0.00 0.00 0.00 36 1430.5
20260505140150 60 201 1.7 5.2 0.00 0.00 0.00 35 1432.5
20260505130150 59 176 0.9 4.3 0.00 0.00 0.00 39 1431.0
20260505124950 56 197 1.7 7.0 0.00 0.00 0.00 42 1427.0
20260505124750 56 178 1.7 6.1 0.00 0.00 0.00 43 1427.4
20260505124550 56 174 0.9 6.1 0.00 0.00 0.00 44 1427.2
20260505124350 56 217 0.9 6.1 0.00 0.00 0.00 44 1426.9
20260505124150 56 161 0.9 5.2 0.00 0.00 0.00 43 1426.7
20260505123950 56 192 1.7 5.2 0.00 0.00 0.00 42 1426.6
20260505123750 56 196 0.9 5.2 0.00 0.00 0.00 43 1426.7
20260505123550 55 188 0.9 4.3 0.00 0.00 0.00 43 1426.4
20260505123350 55 195 1.7 4.3 0.00 0.00 0.00 44 1426.2
20260505123150 55 173 1.7 4.3 0.00 0.00 0.00 43 1426.2
20260505122950 55 167 1.7 4.3 0.00 0.00 0.00 44 1426.0
20260505122750 55 183 0.9 5.2 0.00 0.00 0.00 45 1425.8
20260505122550 54 180 0.9 5.2 0.00 0.00 0.00 45 1425.0
20260505122350 54 193 1.7 5.2 0.00 0.00 0.00 45 1424.4
20260505122150 54 156 1.7 5.2 0.00 0.00 0.00 45 1424.8
20260505121950 55 167 1.7 5.2 0.00 0.00 0.00 46 1425.3
20260505121750 54 178 0.9 5.2 0.00 0.00 0.00 47 1425.0
20260505121550 54 200 1.7 5.2 0.00 0.00 0.00 47 1424.5
20260505121350 54 181 1.7 6.1 0.00 0.00 0.00 48 1424.4
20260505121150 54 214 1.7 6.1 0.00 0.00 0.00 47 1424.0
20260505120950 53 199 1.7 6.1 0.00 0.00 0.00 47 1423.7
20260505120750 53 195 0.9 6.1 0.00 0.00 0.00 47 1423.4
20260505120550 53 228 2.6 6.1 0.00 0.00 0.00 47 1422.9
20260505120350 53 208 1.7 6.1 0.00 0.00 0.00 47 1423.1
20260505120150 53 190 0.9 6.1 0.00 0.00 0.00 47 1423.0
20260505115950 53 230 1.7 6.1 0.00 0.00 0.00 47 1423.0
20260505115750 53 220 1.7 6.1 0.00 0.00 0.00 48 1423.0
20260505115550 53 217 1.7 6.1 0.00 0.00 0.00 48 1422.7
20260505115350 52 199 1.7 6.1 0.00 0.00 0.00 49 1422.4
20260505115150 53 174 0.9 5.2 0.00 0.00 0.00 49 1422.5
20260505114950 52 197 0.9 5.2 0.00 0.00 0.00 50 1422.1
20260505114750 52 192 1.7 4.3 0.00 0.00 0.00 49 1422.1
20260505114550 52 190 1.7 4.3 0.00 0.00 0.00 50 1422.2
20260505114351 52 173 0.9 4.3 0.00 0.00 0.00 49 1421.7
20260505114150 52 199 1.7 4.3 0.00 0.00 0.00 49 1421.6
20260505113950 52 237 1.7 5.2 0.00 0.00 0.00 49 1422.1
20260505113750 52 217 1.7 6.1 0.00 0.00 0.00 50 1422.1
20260505113550 52 165 0.9 6.1 0.00 0.00 0.00 50 1422.0
20260505113350 52 214 1.7 6.1 0.00 0.00 0.00 49 1421.6
20260505113150 52 214 1.7 7.0 0.00 0.00 0.00 49 1421.8
20260505112950 52 189 1.7 7.0 0.00 0.00 0.00 49 1421.4
20260505112750 52 212 1.7 7.0 0.00 0.00 0.00 48 1421.6
20260505112550 52 213 1.7 7.0 0.00 0.00 0.00 48 1422.2
20260505112350 53 204 1.7 7.0 0.00 0.00 0.00 48 1422.6
20260505112150 53 213 1.7 6.1 0.00 0.00 0.00 48 1422.6
20260505111950 53 181 0.9 6.1 0.00 0.00 0.00 48 1422.7
20260505111750 52 214 1.7 6.1 0.00 0.00 0.00 49 1422.4
20260505111550 52 197 1.7 6.1 0.00 0.00 0.00 49 1422.0
20260505111350 52 218 2.6 6.1 0.00 0.00 0.00 48 1421.9
20260505111150 52 185 1.7 5.2 0.00 0.00 0.00 49 1422.1
20260505110950 52 227 1.7 5.2 0.00 0.00 0.00 49 1421.7
20260505110750 52 220 1.7 5.2 0.00 0.00 0.00 49 1421.4
20260505110550 52 204 1.7 5.2 0.00 0.00 0.00 48 1421.5
20260505110350 52 217 0.9 5.2 0.00 0.00 0.00 48 1421.3
20260505110150 52 197 1.7 5.2 0.00 0.00 0.00 48 1421.3
20260505102150 51 207 0.9 5.2 0.00 0.00 0.00 47 1421.0
20260505101950 51 218 1.7 6.1 0.00 0.00 0.00 47 1421.0
20260505101750 52 198 1.7 6.1 0.00 0.00 0.00 47 1421.4
20260505101550 52 200 1.7 6.1 0.00 0.00 0.00 47 1422.1
20260505101350 53 229 2.6 6.1 0.00 0.00 0.00 47 1422.6
20260505101150 53 203 0.9 4.3 0.00 0.00 0.00 47 1423.2
20260505100950 53 216 1.7 4.3 0.00 0.00 0.00 46 1423.4
20260505100750 54 223 0.9 4.3 0.00 0.00 0.00 47 1423.8
20260505100550 54 215 1.7 3.5 0.00 0.00 0.00 46 1423.9
20260505100350 54 208 0.9 5.2 0.00 0.00 0.00 46 1423.9
20260505100150 53 186 0.9 5.2 0.00 0.00 0.00 46 1423.5
20260505095950 53 190 0.9 5.2 0.00 0.00 0.00 47 1423.0
20260505095750 52 224 1.7 5.2 0.00 0.00 0.00 48 1422.3
20260505095550 53 211 1.7 5.2 0.00 0.00 0.00 46 1422.7
20260505095351 53 224 1.7 4.3 0.00 0.00 0.00 46 1423.6
20260505095150 53 226 0.9 4.3 0.00 0.00 0.00 46 1423.6
20260505094950 53 234 1.7 4.3 0.00 0.00 0.00 46 1423.6
20260505094945 53 246 1.7 4.3 0.00 0.00 0.00 46 1423.5
20260505094550 53 195 0.9 4.3 0.00 0.00 0.00 47 1423.5
20260505094351 53 226 1.7 5.2 0.00 0.00 0.00 47 1423.3
20260505094150 53 193 1.7 5.2 0.00 0.00 0.00 47 1423.4
20260505093950 53 203 0.9 7.0 0.00 0.00 0.00 48 1423.1
20260505093750 52 180 0.9 7.0 0.00 0.00 0.00 48 1421.9
20260505093550 52 230 1.7 7.0 0.00 0.00 0.00 48 1421.3
20260505093350 51 214 1.7 7.0 0.00 0.00 0.00 47 1421.1
20260505093150 52 218 2.6 7.0 0.00 0.00 0.00 47 1421.8
20260505092950 53 204 0.9 3.5 0.00 0.00 0.00 47 1422.5
20260505092750 52 141 0.9 7.0 0.00 0.00 0.00 47 1422.3
20260505092550 52 203 0.9 7.0 0.00 0.00 0.00 47 1422.1
20260505092350 52 183 0.9 7.0 0.00 0.00 0.00 47 1421.9
20260505092150 52 217 0.9 7.0 0.00 0.00 0.00 49 1421.5
20260505091952 52 217 1.7 6.1 0.00 0.00 0.00 48 1421.6
20260505091750 52 184 0.9 6.1 0.00 0.00 0.00 49 1421.8
20260505091550 52 211 1.7 6.1 0.00 0.00 0.00 49 1421.4
20260505091350 52 227 1.7 5.2 0.00 0.00 0.00 48 1421.4
20260505091150 52 202 0.9 5.2 0.00 0.00 0.00 47 1421.4
20260505090950 52 225 1.7 4.3 0.00 0.00 0.00 47 1421.4
20260505090750 52 206 1.7 4.3 0.00 0.00 0.00 48 1421.8
20260505090550 52 199 0.9 5.2 0.00 0.00 0.00 48 1421.9
20260505090350 52 197 1.7 5.2 0.00 0.00 0.00 48 1421.7
20260505090150 52 211 0.9 5.2 0.00 0.00 0.00 48 1421.4
20260505085950 51 194 1.7 5.2 0.00 0.00 0.00 48 1420.8
20260505085750 52 171 1.7 5.2 0.00 0.00 0.00 50 1421.2
20260505085550 51 183 0.9 5.2 0.00 0.00 0.00 50 1420.5
20260505085350 51 221 1.7 5.2 0.00 0.00 0.00 50 1419.9
20260505085150 50 157 0.9 6.1 0.00 0.00 0.00 50 1419.6
20260505084950 50 206 1.7 6.1 0.00 0.00 0.00 50 1419.1
20260505084750 50 207 1.7 7.0 0.00 0.00 0.00 50 1419.0
20260505084550 50 212 1.7 7.0 0.00 0.00 0.00 50 1419.0
20260505084350 50 234 1.7 7.0 0.00 0.00 0.00 51 1419.2
20260505084150 50 183 0.9 7.0 0.00 0.00 0.00 51 1419.1
20260505083950 50 191 1.7 7.0 0.00 0.00 0.00 51 1418.9
20260505083750 50 185 0.9 5.2 0.00 0.00 0.00 51 1418.6
20260505083550 49 199 0.9 5.2 0.00 0.00 0.00 51 1418.4
20260505083350 49 240 1.7 5.2 0.00 0.00 0.00 51 1418.3
20260505083150 49 237 2.6 5.2 0.00 0.00 0.00 51 1418.4
20260505082950 50 228 1.7 5.2 0.00 0.00 0.00 51 1418.6
20260505082750 49 184 1.7 5.2 0.00 0.00 0.00 51 1418.3
20260505082550 49 227 1.7 5.2 0.00 0.00 0.00 51 1418.3
20260505082350 49 191 0.9 5.2 0.00 0.00 0.00 51 1418.3
20260505082150 49 217 1.7 5.2 0.00 0.00 0.00 51 1418.2
20260505081950 49 228 1.7 5.2 0.00 0.00 0.00 49 1418.1
20260505081750 49 243 1.7 5.2 0.00 0.00 0.00 50 1418.2
20260505081550 49 225 1.7 5.2 0.00 0.00 0.00 50 1418.1
20260505081350 49 197 0.9 5.2 0.00 0.00 0.00 52 1418.2
20260505081150 49 192 0.9 5.2 0.00 0.00 0.00 52 1417.7
20260505080950 49 217 1.7 5.2 0.00 0.00 0.00 51 1417.3
20260505080750 49 195 0.9 5.2 0.00 0.00 0.00 51 1417.5
20260505080550 48 237 1.7 6.1 0.00 0.00 0.00 52 1417.1
20260505080350 48 208 1.7 6.1 0.00 0.00 0.00 52 1417.0
20260505080150 48 193 0.9 6.1 0.00 0.00 0.00 51 1416.7
20260505075950 48 223 2.6 6.1 0.00 0.00 0.00 51 1416.4
20260505075750 48 172 0.9 5.2 0.00 0.00 0.00 51 1416.3
20260505075550 48 230 1.7 5.2 0.00 0.00 0.00 50 1416.0
20260505075350 47 268 2.6 7.8 0.00 0.00 0.00 49 1415.6
20260505075150 47 225 1.7 7.8 0.00 0.00 0.00 50 1415.8
20260505074950 47 209 0.9 7.8 0.00 0.00 0.00 50 1415.3
20260505074750 46 269 2.6 7.8 0.00 0.00 0.00 49 1414.6
20260505074550 47 247 3.5 7.8 0.00 0.00 0.00 49 1414.8
20260505074350 47 266 3.5 7.0 0.00 0.00 0.00 50 1415.4
20260505074150 48 224 1.7 6.1 0.00 0.00 0.00 51 1416.2
20260505073950 48 220 1.7 6.1 0.00 0.00 0.00 51 1416.0
20260505073750 47 219 1.7 6.1 0.00 0.00 0.00 52 1415.9
20260505073550 47 204 1.7 6.1 0.00 0.00 0.00 51 1415.6
20260505073350 47 210 1.7 7.0 0.00 0.00 0.00 50 1415.4
20260505073150 47 196 1.7 8.7 0.00 0.00 0.00 51 1415.4
20260505072950 47 228 1.7 8.7 0.00 0.00 0.00 50 1415.0
20260505072750 46 217 1.7 8.7 0.00 0.00 0.00 50 1414.6
20260505072550 46 263 4.3 8.7 0.00 0.00 0.00 49 1414.4
20260505072350 46 235 2.6 8.7 0.00 0.00 0.00 50 1414.6
20260505072150 47 239 3.5 8.7 0.00 0.00 0.00 50 1414.6
20260505071950 47 236 3.5 8.7 0.00 0.00 0.00 51 1415.1
20260505071750 47 211 1.7 7.8 0.00 0.00 0.00 52 1414.8
20260505071550 46 250 2.6 7.8 0.00 0.00 0.00 51 1414.3
20260505071350 46 256 4.3 7.8 0.00 0.00 0.00 50 1414.4
20260505071150 47 233 1.7 6.1 0.00 0.00 0.00 50 1414.8
20260505070951 47 223 2.6 7.0 0.00 0.00 0.00 51 1414.6
20260505070750 46 235 2.6 7.0 0.00 0.00 0.00 50 1414.6
20260505070550 46 213 1.7 7.8 0.00 0.00 0.00 51 1414.5
20260505070350 46 269 3.5 7.8 0.00 0.00 0.00 50 1414.4
20260505070150 47 238 2.6 7.8 0.00 0.00 0.00 49 1415.0
20260505065950 47 200 2.6 7.8 0.00 0.00 0.00 51 1415.4
20260505065750 47 191 0.9 6.1 0.00 0.00 0.00 51 1415.4
20260505065550 47 178 1.7 10.4 0.00 0.00 0.00 51 1415.4
20260505065350 47 193 1.7 10.4 0.00 0.00 0.00 51 1414.9
20260505065150 46 227 2.6 10.4 0.00 0.00 0.00 51 1414.4
20260505064950 46 267 3.5 10.4 0.00 0.00 0.00 51 1413.9
20260505064750 46 255 6.1 10.4 0.00 0.00 0.00 50 1413.8
20260505064550 46 263 4.3 9.6 0.00 0.00 0.00 50 1414.1
20260505064350 46 242 3.5 9.6 0.00 0.00 0.00 51 1414.4
20260505064150 46 263 3.5 9.6 0.00 0.00 0.00 52 1414.4
20260505063950 46 187 1.7 9.6 0.00 0.00 0.00 54 1414.4
20260505063750 46 261 4.3 9.6 0.00 0.00 0.00 52 1414.0
20260505063550 46 260 4.3 8.7 0.00 0.00 0.00 50 1414.0
20260505063350 46 245 3.5 11.3 0.00 0.00 0.00 51 1414.4
20260505063150 46 243 2.6 11.3 0.00 0.00 0.00 53 1414.3
20260505062950 46 208 2.6 11.3 0.00 0.00 0.00 54 1413.8
20260505062750 46 254 6.1 11.3 0.00 0.00 0.00 52 1413.4
20260505062550 46 256 4.3 10.4 0.00 0.00 0.00 52 1413.5
20260505062350 46 257 5.2 10.4 0.00 0.00 0.00 51 1413.5
20260505062150 46 229 2.6 10.4 0.00 0.00 0.00 53 1414.0
20260505061950 46 224 2.6 10.4 0.00 0.00 0.00 53 1414.0
20260505061750 46 188 2.6 10.4 0.00 0.00 0.00 54 1414.1
20260505061550 46 149 1.7 8.7 0.00 0.00 0.00 53 1413.8
20260505061351 46 265 3.5 9.6 0.00 0.00 0.00 53 1413.6
20260505061150 46 221 2.6 9.6 0.00 0.00 0.00 54 1413.6
20260505060950 46 243 3.5 10.4 0.00 0.00 0.00 53 1413.4
20260505060750 45 270 4.3 10.4 0.00 0.00 0.00 52 1413.1
20260505060550 45 262 4.3 10.4 0.00 0.00 0.00 52 1413.0
20260505060350 45 270 5.2 10.4 0.00 0.00 0.00 53 1413.0
20260505060150 45 242 4.3 9.6 0.00 0.00 0.00 54 1413.1
20260505055950 45 216 4.3 9.6 0.00 0.00 0.00 52 1413.0
20260505055750 45 272 5.2 9.6 0.00 0.00 0.00 51 1413.2
20260505055550 46 270 4.3 8.7 0.00 0.00 0.00 54 1413.6
20260505055350 46 229 2.6 7.8 0.00 0.00 0.00 56 1413.7
20260505055345 46 234 3.5 7.8 0.00 0.00 0.00 56 1413.4
20260505054950 45 237 3.5 7.8 0.00 0.00 0.00 54 1413.1
20260505054750 45 237 3.5 7.8 0.00 0.00 0.00 54 1413.2
20260505054550 46 216 2.6 7.0 0.00 0.00 0.00 55 1413.4
20260505054350 46 191 2.6 7.0 0.00 0.00 0.00 55 1413.4
20260505054150 46 190 2.6 9.6 0.00 0.00 0.00 55 1413.4
20260505053950 46 215 1.7 9.6 0.00 0.00 0.00 55 1413.5
20260505053750 46 183 2.6 9.6 0.00 0.00 0.00 55 1413.5
20260505053550 46 212 2.6 9.6 0.00 0.00 0.00 56 1413.6
20260505053350 46 271 3.5 9.6 0.00 0.00 0.00 56 1413.6
20260505053150 45 236 1.7 9.6 0.00 0.00 0.00 53 1413.3
20260505052950 45 265 4.3 9.6 0.00 0.00 0.00 53 1413.1
20260505052750 45 246 4.3 9.6 0.00 0.00 0.00 51 1413.1
20260505052550 45 265 4.3 8.7 0.00 0.00 0.00 54 1413.1
20260505052350 45 248 2.6 11.3 0.00 0.00 0.00 53 1413.0
20260505052150 45 242 4.3 11.3 0.00 0.00 0.00 52 1412.9
20260505051950 45 270 4.3 11.3 0.00 0.00 0.00 52 1412.9
20260505051750 45 248 4.3 13.0 0.00 0.00 0.00 52 1413.0
20260505051550 45 248 4.3 13.0 0.00 0.00 0.00 52 1412.9
20260505051350 45 238 4.3 13.0 0.00 0.00 0.00 52 1412.8
20260505051150 45 259 6.1 13.0 0.00 0.00 0.00 52 1412.8
20260505050950 45 262 7.0 13.0 0.00 0.00 0.00 51 1412.7
20260505050750 45 263 5.2 11.3 0.00 0.00 0.00 52 1412.8
20260505050550 45 248 6.1 11.3 0.00 0.00 0.00 52 1412.7
20260505050350 45 260 6.1 11.3 0.00 0.00 0.00 52 1412.8
20260505050150 45 230 4.3 11.3 0.00 0.00 0.00 54 1412.9
20260505041750 44 241 4.3 10.4 0.00 0.00 0.00 56 1415.0
20260505041550 44 262 3.5 10.4 0.00 0.00 0.00 54 1414.8
20260505041350 44 269 3.5 10.4 0.00 0.00 0.00 54 1414.7
20260505041150 44 266 5.2 10.4 0.00 0.00 0.00 53 1414.7
20260505040950 44 249 3.5 9.6 0.00 0.00 0.00 55 1414.6
20260505040750 44 246 4.3 7.8 0.00 0.00 0.00 56 1414.6
20260505040550 44 270 3.5 9.6 0.00 0.00 0.00 57 1414.7
20260505040350 44 238 4.3 9.6 0.00 0.00 0.00 57 1414.7
20260505040150 44 244 4.3 10.4 0.00 0.00 0.00 56 1414.6
20260505035950 44 255 5.2 10.4 0.00 0.00 0.00 57 1414.7
20260505035750 44 232 5.2 10.4 0.00 0.00 0.00 57 1414.7
20260505035550 44 242 4.3 10.4 0.00 0.00 0.00 57 1414.7
20260505035350 44 233 5.2 10.4 0.00 0.00 0.00 57 1414.7
20260505035150 44 256 4.3 10.4 0.00 0.00 0.00 60 1414.8
20260505034950 44 270 4.3 10.4 0.00 0.00 0.00 60 1414.8
20260505034750 44 254 4.3 10.4 0.00 0.00 0.00 61 1414.9
20260505034550 44 263 4.3 7.8 0.00 0.00 0.00 63 1415.0
20260505034350 44 228 3.5 7.0 0.00 0.00 0.00 62 1414.9
20260505034150 44 267 3.5 7.0 0.00 0.00 0.00 62 1414.9
20260505033950 44 242 3.5 7.8 0.00 0.00 0.00 61 1414.8
20260505033750 44 250 3.5 7.8 0.00 0.00 0.00 60 1414.8
20260505033550 44 240 3.5 7.8 0.00 0.00 0.00 60 1414.9
20260505033350 44 249 4.3 7.8 0.00 0.00 0.00 59 1414.9
20260505033150 44 267 3.5 7.0 0.00 0.00 0.00 59 1414.8
20260505032950 44 266 3.5 7.0 0.00 0.00 0.00 58 1414.8
20260505032750 44 275 4.3 7.0 0.00 0.00 0.00 58 1414.9
20260505032550 44 221 3.5 8.7 0.00 0.00 0.00 58 1414.9
20260505032350 44 260 3.5 8.7 0.00 0.00 0.00 57 1415.0
20260505032150 44 258 4.3 8.7 0.00 0.00 0.00 58 1415.0
20260505031950 44 242 4.3 8.7 0.00 0.00 0.00 57 1415.1
20260505031750 44 260 4.3 8.7 0.00 0.00 0.00 57 1415.1
20260505031550 44 237 3.5 8.7 0.00 0.00 0.00 58 1415.2
20260505031350 44 252 4.3 9.6 0.00 0.00 0.00 59 1415.4
20260505031150 44 246 4.3 9.6 0.00 0.00 0.00 58 1415.4
20260505030950 44 242 4.3 9.6 0.00 0.00 0.00 58 1415.4
20260505030750 44 269 5.2 9.6 0.00 0.00 0.00 58 1415.4
20260505030550 45 232 2.6 8.7 0.00 0.00 0.00 60 1415.5
20260505030350 45 260 2.6 8.7 0.00 0.00 0.00 60 1415.5
20260505030150 45 251 3.5 8.7 0.00 0.00 0.00 60 1415.6
20260505025950 45 265 3.5 7.8 0.00 0.00 0.00 60 1415.6
20260505025750 45 276 4.3 8.7 0.00 0.00 0.00 60 1415.6
20260505025550 45 283 4.3 8.7 0.00 0.00 0.00 60 1415.7
20260505025350 45 273 3.5 8.7 0.00 0.00 0.00 61 1415.7
20260505025150 45 274 4.3 8.7 0.00 0.00 0.00 60 1415.7
20260505024950 45 249 3.5 7.8 0.00 0.00 0.00 60 1415.8
20260505024750 45 256 3.5 8.7 0.00 0.00 0.00 61 1415.8
20260505024550 45 266 3.5 8.7 0.00 0.00 0.00 60 1415.8
20260505024350 45 254 5.2 8.7 0.00 0.00 0.00 60 1415.7
20260505024150 45 244 3.5 8.7 0.00 0.00 0.00 61 1415.6
20260505023950 45 207 3.5 8.7 0.00 0.00 0.00 61 1415.7
20260505023750 45 224 3.5 8.7 0.00 0.00 0.00 61 1415.9
20260505023550 45 230 3.5 8.7 0.00 0.00 0.00 61 1416.1
20260505023350 45 243 3.5 8.7 0.00 0.00 0.00 63 1413.2
20260505023150 46 266 4.3 7.8 0.00 0.00 0.00 64 1413.4
20260505022950 46 227 2.6 7.0 0.00 0.00 0.00 65 1413.5
20260505022750 46 225 3.5 7.0 0.00 0.00 0.00 64 1413.5
20260505022550 46 224 2.6 6.1 0.00 0.00 0.00 65 1413.5
20260505022350 46 189 1.7 8.7 0.00 0.00 0.00 65 1413.6
20260505022150 46 176 1.7 8.7 0.00 0.00 0.00 64 1413.7
20260505021950 46 203 2.6 11.3 0.00 0.00 0.00 64 1413.8
20260505021750 46 217 3.5 11.3 0.00 0.00 0.00 64 1414.0
20260505021550 46 243 4.3 11.3 0.00 0.00 0.00 64 1414.0
20260505021350 46 239 3.5 11.3 0.00 0.00 0.00 64 1414.0
20260505021150 46 230 3.5 8.7 0.00 0.00 0.00 65 1414.1
20260505020950 46 228 3.5 8.7 0.00 0.00 0.00 65 1414.0
20260505020750 46 221 3.5 8.7 0.00 0.00 0.00 65 1414.0
20260505020550 46 214 2.6 7.0 0.00 0.00 0.00 65 1414.0
20260505020350 46 173 1.7 9.6 0.00 0.00 0.00 65 1414.0
20260505020150 46 205 1.7 9.6 0.00 0.00 0.00 65 1414.2
20260505015950 46 215 2.6 9.6 0.00 0.00 0.00 65 1414.3
20260505015750 46 202 3.5 9.6 0.00 0.00 0.00 64 1414.3
20260505015550 46 186 2.6 9.6 0.00 0.00 0.00 64 1414.2
20260505015350 46 218 2.6 7.0 0.00 0.00 0.00 64 1414.2
20260505015150 46 154 1.7 7.0 0.00 0.00 0.00 65 1414.3
20260505014950 46 174 1.7 7.8 0.00 0.00 0.00 65 1414.5
20260505014750 46 192 2.6 7.8 0.00 0.00 0.00 64 1414.6
20260505014550 46 232 3.5 7.8 0.00 0.00 0.00 63 1414.7
20260505014350 46 245 3.5 8.7 0.00 0.00 0.00 63 1414.6
20260505014150 47 208 3.5 8.7 0.00 0.00 0.00 66 1414.6
20260505013950 47 215 1.7 8.7 0.00 0.00 0.00 65 1414.7
20260505013750 47 221 3.5 8.7 0.00 0.00 0.00 64 1414.8
20260505013550 47 236 3.5 9.6 0.00 0.00 0.00 65 1414.8
20260505013350 47 209 3.5 9.6 0.00 0.00 0.00 66 1414.9
20260505013150 47 202 3.5 9.6 0.00 0.00 0.00 67 1415.1
20260505012950 47 209 3.5 9.6 0.00 0.00 0.00 69 1415.3
20260505012750 47 200 4.3 13.0 0.00 0.00 0.00 69 1415.4
20260505012550 47 163 2.6 13.0 0.00 0.00 0.00 69 1415.4
20260505012350 47 204 4.3 13.0 0.00 0.00 0.00 69 1415.5
20260505012150 47 211 3.5 13.0 0.00 0.00 0.00 70 1415.5
20260505011950 47 210 4.3 13.0 0.00 0.00 0.00 70 1415.5
20260505011750 47 208 3.5 10.4 0.00 0.00 0.00 70 1415.5
20260505011550 47 232 3.5 10.4 0.00 0.00 0.00 70 1415.5
20260505011350 47 190 2.6 10.4 0.00 0.00 0.00 69 1415.4
20260505011150 47 221 4.3 10.4 0.00 0.00 0.00 70 1415.5
20260505010950 47 199 3.5 10.4 0.00 0.00 0.00 70 1415.6
20260505010750 47 201 3.5 11.3 0.00 0.00 0.00 71 1415.8
20260505010350 48 225 3.5 11.3 0.00 0.00 0.00 73 1416.2
20260505010150 48 182 3.5 11.3 0.00 0.00 0.00 73 1416.2
20260505005950 48 215 3.5 11.3 0.00 0.00 0.00 73 1416.2
20260505005750 48 203 4.3 10.4 0.00 0.00 0.00 74 1415.9
20260505005550 47 205 2.6 8.7 0.00 0.00 0.00 74 1415.9
20260505005350 47 206 3.5 7.0 0.00 0.00 0.00 75 1415.9
20260505005150 47 164 1.7 10.4 0.00 0.00 0.00 74 1415.8
20260505004950 48 169 1.7 10.4 0.00 0.00 0.00 74 1416.0
20260505004750 48 184 2.6 10.4 0.00 0.00 0.00 74 1416.0
20260505004550 48 181 2.6 10.4 0.00 0.00 0.00 74 1416.0
20260505004350 48 211 2.6 10.4 0.00 0.00 0.00 74 1416.0
20260505004150 48 201 2.6 12.2 0.00 0.00 0.00 74 1416.0
20260505003950 48 181 2.6 12.2 0.00 0.00 0.00 74 1416.0
20260505003750 48 186 2.6 12.2 0.00 0.00 0.00 75 1416.1
20260505003550 48 211 3.5 12.2 0.00 0.00 0.00 75 1416.3
20260505003350 48 207 2.6 10.4 0.00 0.00 0.00 76 1416.4
20260505003150 48 200 3.5 10.4 0.00 0.00 0.00 76 1416.5
20260505002950 48 222 4.3 10.4 0.00 0.00 0.00 76 1416.3
20260505002750 48 213 1.7 6.1 0.00 0.00 0.00 76 1416.2
20260505002550 48 188 1.7 7.8 0.00 0.00 0.00 76 1416.2
20260505002350 48 180 1.7 7.8 0.00 0.00 0.00 76 1416.2
20260505002150 48 181 1.7 8.7 0.00 0.00 0.00 76 1416.2
20260505001950 48 211 2.6 8.7 0.00 0.00 0.00 77 1416.2
20260505001750 48 202 2.6 8.7 0.00 0.00 0.00 78 1416.3
20260505001550 48 172 2.6 8.7 0.00 0.00 0.00 79 1416.2
20260505001350 48 199 2.6 8.7 0.00 0.00 0.00 80 1416.0
20260505001150 47 184 1.7 7.8 0.00 0.00 0.00 81 1415.7
20260505000950 47 197 2.6 7.8 0.00 0.00 0.00 82 1415.7
20260505000750 48 218 2.6 7.8 0.00 0.00 0.00 83 1416.2
20260505000550 48 169 1.7 7.8 0.00 0.00 0.00 84 1416.3
20260505000351 48 188 1.7 7.8 0.00 0.00 0.00 84 1416.5
20260505000150 48 184 1.7 8.7 0.00 0.00 0.00 84 1416.6
20260504235950 48 178 2.6 8.7 0.00 0.00 0.00 84 1416.6
20260504235750 48 200 2.6 8.7 0.00 0.00 0.00 84 1416.7
20260504235550 48 180 2.6 8.7 0.00 0.00 0.00 85 1416.7
20260504235350 48 183 2.6 8.7 0.00 0.00 0.00 85 1416.8
20260504235150 48 190 2.6 7.8 0.00 0.00 0.00 85 1416.9
20260504234950 48 190 2.6 7.8 0.00 0.00 0.00 85 1416.9
20260504234750 48 183 2.6 7.8 0.00 0.00 0.00 85 1417.0
20260504234550 48 159 2.6 8.7 0.00 0.00 0.00 85 1417.0
20260504234350 48 187 2.6 8.7 0.00 0.00 0.00 85 1417.0
20260504234150 48 178 2.6 8.7 0.00 0.00 0.00 85 1417.1
20260504233950 48 171 3.5 8.7 0.00 0.00 0.00 85 1417.1
20260504233750 48 179 2.6 8.7 0.00 0.00 0.00 85 1417.2
20260504233550 49 200 2.6 9.6 0.00 0.00 0.00 84 1417.3
20260504233350 49 174 2.6 9.6 0.00 0.00 0.00 84 1417.3
20260504233150 49 163 2.6 9.6 0.00 0.00 0.00 84 1417.3
20260504232950 49 181 2.6 9.6 0.00 0.00 0.00 84 1417.4
20260504232750 49 172 2.6 9.6 0.00 0.00 0.00 84 1417.3
20260504232550 49 184 3.5 9.6 0.00 0.00 0.00 84 1417.3
20260504232350 49 192 3.5 8.7 0.00 0.00 0.00 84 1417.4
20260504232150 49 192 2.6 8.7 0.00 0.00 0.00 84 1417.4
20260504231950 49 173 3.5 11.3 0.00 0.00 0.00 84 1417.5
20260504231750 49 178 2.6 11.3 0.00 0.00 0.00 83 1417.5
20260504231550 49 200 4.3 11.3 0.00 0.00 0.00 83 1417.5